SL-8 R/B, 22676

Orbit data source: Space-Track

SL-8 R/B, 22676 is space debris in LEO originally from a launch on Wed, 16 Jun 1993 UTC launched from the Plesetsk Missile And Space Complex (PKMTR). Debris objects in space refer to the collection of defunct objects orbiting the Earth. Examples of debris include non-operational satellites, rocket bodies, and fragments generated from explosions, collisions, or faulty payload assembly.

Loading next visibility...
Identifier
22676, 1993-036B
Orbit
LEO
Country
Flag of CISCIS
Related business
Manufacturer
Polyot
Mission
Spacecraft
Bus & Motor
S3, Unknown motor
Mass
1,434 kg wet, 1,434 kg dry
Launch date (UTC)
1993-06-16 (33 years ago)
Launch vehicle
Unknown
Launch site
Plesetsk Missile And Space Complex (PKMTR)
Object type
Payload
Rocket body
Debris
Shape & HBR
Cyl, 3.3 m
Radar Cross Section
14.646 m², Large (>1 m²)

Expand to show TLE details & history
Last TLE update: 9 hours ago

TLE from 9 hours ago
0 SL-8 R/B
1 22676U 93036B   26238.19970950  .00000157  00000-0  63871-4 0  9997
2 22676  74.0427 158.2226 0017117  83.4318 276.8782 14.35331705736344
Epoch: 2026-08-26T04:47Z
TLE epoch observation values (Epoch: 2026-08-26T04:47:34.900Z)
Latitude
-0.00008°
Longitude
111.87103°
Altitude
775.129 km
Speed
7.467 km/s
True Right ascension
10h 32m 53s
True Declination
0° 00' 00"
Sunlit
Object was in daylight at epoch
Visualization orbit readout
Latitude
Unknown
Longitude
Unknown
Altitude
Unknown
Speed
Unknown
Apparent Right ascension
Unknown
Apparent Declination
Unknown
Sunlit
N/A
Visualization observer readout
Local Sidereal Time
05:01:19
Azimuth
Unknown
Elevation
Unknown
Doppler factor
Unknown
Orbital elements
Apogee altitude
783.827 km
Perigee altitude
759.35 km
Semi-major axis
7,149.725 km
Eccentricity
0.00171
Inclination
74.0427°
RAAN
158.2226°
Arg. of periapsis
83.4318°
True anomaly
276.68342°
Mean anomaly
276.8782°
Eccentric anomaly
276.78081°
Mean motion
3.59012 °/min
Orbital period
100.28 mins
BSTAR
0.000063871

Documentation

Showing up to 5 results
|